sat.trackr.live / text

‹ back to catalog

STARLINK-3289

NORAD 50173 · 2021-125T

PAYLOAD ACTIVE UNKNOWN

§ Identity

Operator
Country
US
Launch date
2021-12-18
Launch site
AFWTR
Launch vehicle
Mass (kg)
RCS (m²)

Purposes: comms

External: N2YO · Heavens-Above · Gunter

§ Orbital elements

Epoch: 2026-05-25T00:12:57.320064Z

Period
95.17 min
Inclination
53.2147°
Eccentricity
0.0000697
Mean motion
15.13058666 rev/d
Perigee alt
526.4 km
Apogee alt
527.4 km
Semi-major
6,905.0 km
B*
9.6436e-4
RAAN
254.8785°
Arg perigee
125.5316°
Mean anomaly
234.5743°
Rev number
24,829

§ Raw data

STARLINK-32891 50173U 21125T   26145.00899676  .00016990  00000+0  96436-3 0  99952 50173  53.2147 254.8785 0000697 125.5316 234.5743 15.13058666248298

JSON: /api/v1/satellites/50173 · /tle

For live sub-satellite position, see the globe view (requires WebGL).

§ Visibility from observer

Set your observer location to see the next 7 days of passes ≥ 10°. The values pass through the URL so the page stays shareable.

No JS? Fill the form by hand. The geolocation button needs JavaScript.